This demonstration page uses our WeatherBlox Daily Observations layout. Learn more.

36.17497, -115.13722

Hourly Observations for September 1, 2018

Temp ( °F °C ) Dew Point ( °F °C ) Humidity (%) Winds ( mph kmh ) Pressure ( in mb ) Visibility ( mi km ) Precip ( " mm )
12:53 am 00:53 Clear 80 26.7 24 -4.4 13 13 WNW 7 11 29.68 1005 10 16.09344 0 0
1:53 am 01:53 Clear 78 25.6 20 -6.7 11 11 SSE 3 6 29.71 1006 10 16.09344 0 0
2:53 am 02:53 Clear 78 25.6 18 -7.8 10 10 Calm 29.71 1006 10 16.09344 0 0
3:53 am 03:53 Clear 75 23.9 19 -7.2 12 12 NNW 3 6 29.71 1006 10 16.09344 0 0
4:53 am 04:53 Clear 74 23.3 25 -3.9 16 16 Calm 29.71 1006 10 16.09344 0 0
5:53 am 05:53 Clear 73 22.8 28 -2.2 19 19 N 3 6 29.74 1007 10 16.09344 0 0
6:53 am 06:53 Sunny 74 23.3 29 -1.7 19 19 WNW 6 9 29.74 1007 10 16.09344 0 0
7:53 am 07:53 Sunny 78 25.6 25 -3.9 14 14 N 3 6 29.77 1008 10 16.09344 0 0
8:53 am 08:53 Sunny 86 30 20 -6.7 9 9 N 10 17 29.77 1008 10 16.09344 0 0
9:53 am 09:53 Sunny 88 31.1 21 -6.1 8 8 SE 7 11 29.77 1008 10 16.09344 0 0
10:53 am 10:53 Sunny 90 32.2 19 -7.2 7 7 SSE 6 9 29.77 1008 10 16.09344 0 0
11:53 am 11:53 Sunny 93 33.9 20 -6.7 7 7 N 6 9 29.77 1008 10 16.09344 0 0
12:53 pm 12:53 Sunny 95 35 22 -5.6 7 7 Calm 29.74 1007 10 16.09344 0 0
1:53 pm 13:53 Sunny 97 36.1 23 -5 7 7 N 5 7 29.71 1006 10 16.09344 0 0
2:53 pm 14:53 Sunny 98 36.7 27 -2.8 8 8 Calm 29.68 1005 10 16.09344 0 0
3:53 pm 15:53 Sunny 97 36.1 27 -2.8 8 8 N 3 6 29.68 1005 10 16.09344 0 0
4:53 pm 16:53 Sunny 98 36.7 26 -3.3 8 8 N 3 6 29.65 1004 10 16.09344 0 0
5:53 pm 17:53 Sunny 98 36.7 24 -4.4 7 7 ESE 7 11 29.65 1004 10 16.09344 0 0
6:53 pm 18:53 Sunny 96 35.6 23 -5 7 7 ESE 6 9 29.65 1004 10 16.09344 0 0
7:53 pm 19:53 Clear 92 33.3 24 -4.4 8 8 ESE 5 7 29.68 1005 10 16.09344 0 0
8:53 pm 20:53 Clear 92 33.3 27 -2.8 10 10 SSW 3 6 29.68 1005 10 16.09344 0 0
9:53 pm 21:53 Clear 89 31.7 33 0.6 14 14 W 6 9 29.71 1006 10 16.09344 0 0
10:53 pm 22:53 Clear 85 29.4 35 1.7 17 17 NNE 5 7 29.71 1006 10 16.09344 0 0
11:53 pm 23:53 Clear 82 27.8 32 0 16 16 N 5 7 29.71 1006 10 16.09344 0 0

Powered by AerisWeather